Location: Battery Park City
(40.7115°N, 74.0163°W)
Time: 05:29:16
(UTC+00:00)

Cosmos 1980 - Pass Details

Date: 08 December 2019
Orbit: 838 x 848 km, 71.0° (Epoch: 21 January)

Event Time Altitude Azimuth Distance (km) Brightness Sun altitude
Rises 21:51:12 0° 180° (S) 3,372 7.2 -4.6°
Reaches altitude 10° 21:53:46 10° 172° (S) 2,443 6.4 -5.1°
Maximum altitude 21:58:55 39° 105° (ESE) 1,240 4.3 -5.9°
Drops below altitude 10° 22:04:06 10° 39° (NE) 2,462 5.6 -6.8°
Enters shadow 22:05:47 - 33° (NNE) 3,070 6.1 -7.1°
